Regional Weather Roundup
Issued by NWS

Home | Current Version | Previous Version | Text Only | Print | Product List | Glossary On
Versions: 1 2 3 4 5 6 7 8 9 10 11 12 13 14 15 16 17 18 19 20 21 22 23 24 25 26 27 28 29 30 31 32 33 34 35 36 37 38 39 40 41 42 43 44 45 46 47 48 49 50
000
ASUS43 KTOP 062308
RWRKS

WEATHER ROUNDUP FOR KANSAS
NATIONAL WEATHER SERVICE GOODLAND KS
600 PM CDT WED MAY 06 2015

NOTE:  "FAIR" INDICATES FEW OR NO CLOUDS BELOW 12,000 FEET WITH NO
SIGNIFICANT WEATHER AND/OR OBSTRUCTIONS TO VISIBILITY.

KSZ001>006-013>018-027>032-041>047-070000-
NORTHWEST KANSAS

CITY           SKY/WX    TMP DP  RH WIND       PRES   REMARKS
GOODLAND       CLOUDY    61  56  83 S12       29.63S
HAYS           PTSUNNY   81  54  39 SW23G37   29.58S
HILL CITY      PTSUNNY   76  53  44 SW17G25   29.58F
RUSSELL        CLOUDY    77  64  64 S21G35    29.57F
$$

KSZ061>065-074>080-084>089-070000-
SOUTHWEST KANSAS

CITY           SKY/WX    TMP DP  RH WIND       PRES   REMARKS
DODGE CITY     SUNNY     80  50  34 S26G36    29.63F
ELKHART          N/A     79  46  31 S18         N/A
GARDEN CITY    MOSUNNY   74  51  44 S25G32    29.60F
GREAT BEND     PTSUNNY   75  59  57 S28G37    29.61S
LIBERAL        MOSUNNY   81  52  36 S23G32    29.64F
PRATT          CLOUDY    77  57  50 S21G26    29.67S
$$

KSZ066>073-081>083-090>101-070000-
SOUTHEAST KANSAS

CITY           SKY/WX    TMP DP  RH WIND       PRES   REMARKS
CHANUTE        SUNNY     76  61  59 S20G31    29.84F
COFFEYVILLE    PTSUNNY   76  62  62 S16G26    29.85F
HUTCHINSON     PTSUNNY   72  62  71 SE29G41   29.69R
MEDICINE LODGE   N/A     76  66  71 S16G30    29.67R
NEWTON         PTSUNNY   70  63  78 S23G32    29.76R THUNDER
PARSONS        SUNNY     77  62  59 SE12G21   29.86F
WICHITA INTL   TSTM      70  66  87 SE26G35   29.73S
WICHITA JABRA  PTSUNNY   71  64  78 S22G35    29.75R
WICHITA MCCONL PTSUNNY   72  66  83 SE24G30   29.76R
WINFIELD       CLOUDY    72  66  81 SE15G28   29.79F
$$

KSZ007>012-019>026-033>040-048>060-102>105-070000-
NORTHEAST KANSAS

CITY           SKY/WX    TMP DP  RH WIND       PRES   REMARKS
CONCORDIA      CLOUDY    69  63  81 SE26G35   29.63F
EMPORIA        CLOUDY    72  63  73 S23G36    29.79S
LAWRENCE       CLOUDY    71  63  75 SE15      29.83F
MANHATTAN      PTSUNNY   73  65  75 S28G40    29.72F
MARYSVILLE     CLOUDY    70  63  78 SE17G26   29.73F
OLATHE IND     MOSUNNY   73  63  70 SE16      29.86F
OLATHE EXE     MOSUNNY   73  64  73 SE13G22   29.85F
SALINA         PTSUNNY   76  64  66 S33G46    29.65F
TOPEKA BILLARD PTSUNNY   71  63  75 SE16      29.81F
TOPEKA FORBES  PTSUNNY   72  63  73 SE17G23   29.80F
$$



USA.gov is the U.S. government's official web portal to all federal, state and local government web resources and services.